Location: Cahas Mountain Overlook
(37.0833°N, 80.1000°W)
Time: 19:49:46
(UTC-04:00)

Tiros 1 - Pass Details

Date: 12 February 2026
Orbit: 618 x 649 km, 48.4° (Epoch: 13 March)

Event Time Altitude Azimuth Distance (km) Brightness Sun altitude
Rises 14:31:16 0° 303° (WNW) 2,886 10.5 32.5°
Reaches altitude 10° 14:34:04 10° 319° (NW) 1,978 9.6 32.1°
Maximum altitude 14:37:31 21° 9° (N) 1,396 8.6 31.8°
Drops below altitude 10° 14:40:59 10° 59° (ENE) 1,978 9.3 31.3°
Sets 14:43:47 0° 76° (ENE) 2,886 10.1 31.0°
